TimeEDT,TemperatureF,Dew PointF,Humidity,Sea Level PressureIn,VisibilityMPH,Wind Direction,Wind SpeedMPH,Gust SpeedMPH,PrecipitationIn,Events,Conditions,WindDirDegrees,DateUTC
12:15 AM,64.4,64.4,100,29.95,7.0,North,4.6,19.6,N/A,,Mostly Cloudy,360,2012-10-07 04:15:00
12:35 AM,66.2,64.4,94,29.95,10.0,NNW,5.8,-,N/A,,Overcast,330,2012-10-07 04:35:00
12:55 AM,66.2,64.4,94,29.94,10.0,NE,6.9,-,N/A,,Scattered Clouds,50,2012-10-07 04:55:00
1:15 AM,64.4,64.4,100,29.95,10.0,ENE,4.6,-,N/A,,Partly Cloudy,60,2012-10-07 05:15:00
1:35 AM,64.4,64.4,100,29.95,10.0,North,10.4,-,N/A,,Clear,10,2012-10-07 05:35:00
1:55 AM,64.4,64.4,100,29.96,10.0,North,13.8,20.7,N/A,,Clear,350,2012-10-07 05:55:00
2:15 AM,64.4,62.6,94,29.95,10.0,North,17.3,23.0,N/A,,Clear,10,2012-10-07 06:15:00
2:35 AM,64.4,62.6,94,29.95,10.0,North,15.0,26.5,N/A,,Clear,360,2012-10-07 06:35:00
2:55 AM,64.4,62.6,94,29.95,10.0,North,13.8,18.4,N/A,,Partly Cloudy,10,2012-10-07 06:55:00
3:15 AM,62.6,60.8,94,29.95,10.0,North,11.5,20.7,N/A,,Partly Cloudy,10,2012-10-07 07:15:00
3:35 AM,62.6,60.8,94,29.94,10.0,NE,11.5,-,N/A,,Clear,40,2012-10-07 07:35:00
3:55 AM,60.8,60.8,100,29.95,10.0,NNE,9.2,-,N/A,,Clear,20,2012-10-07 07:55:00
4:15 AM,60.8,60.8,100,29.96,10.0,NNW,11.5,-,N/A,,Mostly Cloudy,330,2012-10-07 08:15:00
4:35 AM,60.8,59.0,94,29.95,10.0,North,11.5,-,N/A,,Scattered Clouds,10,2012-10-07 08:35:00
4:55 AM,60.8,59.0,94,29.96,10.0,North,11.5,16.1,N/A,,Clear,10,2012-10-07 08:55:00
5:15 AM,59.0,57.2,94,29.95,10.0,NNE,12.7,19.6,N/A,,Partly Cloudy,30,2012-10-07 09:15:00
5:35 AM,59.0,57.2,94,29.96,10.0,North,10.4,-,N/A,,Partly Cloudy,10,2012-10-07 09:35:00
5:55 AM,57.2,57.2,100,29.96,10.0,NNE,10.4,-,N/A,,Mostly Cloudy,20,2012-10-07 09:55:00
6:15 AM,57.2,57.2,100,29.96,10.0,North,6.9,-,N/A,,Mostly Cloudy,10,2012-10-07 10:15:00
6:35 AM,57.2,55.4,94,29.96,10.0,North,8.1,-,N/A,,Mostly Cloudy,10,2012-10-07 10:35:00
6:55 AM,57.2,55.4,94,29.96,10.0,North,8.1,-,N/A,,Partly Cloudy,360,2012-10-07 10:55:00
7:15 AM,57.2,55.4,94,29.97,10.0,Calm,Calm,-,N/A,,Mostly Cloudy,0,2012-10-07 11:15:00
7:35 AM,57.2,55.4,94,29.98,10.0,North,8.1,-,N/A,,Overcast,350,2012-10-07 11:35:00
7:55 AM,57.2,55.4,94,29.99,10.0,NNW,5.8,-,N/A,,Overcast,340,2012-10-07 11:55:00
8:15 AM,57.2,55.4,94,30.00,10.0,North,8.1,-,N/A,,Overcast,360,2012-10-07 12:15:00
8:35 AM,59.0,55.4,88,30.01,10.0,NNE,10.4,-,N/A,,Overcast,30,2012-10-07 12:35:00
8:55 AM,57.2,55.4,94,30.05,10.0,North,26.5,50.6,N/A,,Overcast,350,2012-10-07 12:55:00
9:15 AM,57.2,55.4,94,30.04,10.0,NNE,18.4,34.5,N/A,,Overcast,20,2012-10-07 13:15:00
9:35 AM,59.0,55.4,88,30.03,10.0,NE,16.1,25.3,N/A,,Overcast,40,2012-10-07 13:35:00
9:55 AM,60.8,57.2,88,30.04,10.0,NNE,19.6,24.2,N/A,,Overcast,20,2012-10-07 13:55:00
10:15 AM,60.8,57.2,88,30.04,10.0,NNE,12.7,27.6,N/A,,Overcast,20,2012-10-07 14:15:00
10:35 AM,62.6,57.2,82,30.03,10.0,ENE,16.1,21.9,N/A,,Overcast,60,2012-10-07 14:35:00
10:55 AM,64.4,57.2,77,30.02,10.0,ENE,16.1,19.6,N/A,,Overcast,70,2012-10-07 14:55:00
11:15 AM,64.4,57.2,77,30.03,10.0,East,8.1,21.9,N/A,,Overcast,80,2012-10-07 15:15:00
11:35 AM,64.4,57.2,77,30.03,10.0,NE,13.8,17.3,N/A,,Overcast,40,2012-10-07 15:35:00
11:55 AM,66.2,57.2,73,30.03,10.0,NNE,11.5,17.3,N/A,,Overcast,30,2012-10-07 15:55:00
12:15 PM,66.2,59.0,78,30.03,10.0,North,15.0,23.0,N/A,,Overcast,360,2012-10-07 16:15:00
12:35 PM,66.2,57.2,73,30.02,10.0,North,12.7,23.0,N/A,,Mostly Cloudy,360,2012-10-07 16:35:00
12:55 PM,64.4,57.2,77,30.02,10.0,North,16.1,24.2,N/A,,Mostly Cloudy,10,2012-10-07 16:55:00
1:15 PM,66.2,57.2,73,30.01,10.0,NNE,10.4,-,N/A,,Scattered Clouds,30,2012-10-07 17:15:00
1:35 PM,66.2,57.2,73,30.01,10.0,North,15.0,21.9,N/A,,Clear,350,2012-10-07 17:35:00
1:55 PM,66.2,57.2,73,30.00,10.0,NNW,13.8,20.7,N/A,,Clear,340,2012-10-07 17:55:00
2:15 PM,68.0,57.2,68,30.00,10.0,North,12.7,24.2,N/A,,Clear,350,2012-10-07 18:15:00
2:35 PM,69.8,59.0,68,30.00,10.0,North,17.3,-,N/A,,Clear,350,2012-10-07 18:35:00
2:55 PM,66.2,59.0,78,29.99,10.0,North,17.3,24.2,N/A,,Clear,350,2012-10-07 18:55:00
3:15 PM,66.2,57.2,73,29.99,10.0,North,18.4,24.2,N/A,,Clear,350,2012-10-07 19:15:00
3:35 PM,64.4,57.2,77,29.99,10.0,North,16.1,24.2,N/A,,Clear,360,2012-10-07 19:35:00
3:55 PM,66.2,57.2,73,30.00,10.0,North,15.0,20.7,N/A,,Clear,360,2012-10-07 19:55:00
4:15 PM,64.4,57.2,77,30.01,10.0,North,18.4,-,N/A,,Clear,350,2012-10-07 20:15:00
4:35 PM,64.4,57.2,77,30.01,10.0,North,17.3,23.0,N/A,,Clear,10,2012-10-07 20:35:00
4:55 PM,64.4,57.2,77,30.01,10.0,North,16.1,24.2,N/A,,Clear,360,2012-10-07 20:55:00
5:15 PM,64.4,57.2,77,30.02,10.0,North,17.3,23.0,N/A,,Clear,360,2012-10-07 21:15:00
5:35 PM,62.6,57.2,82,30.02,10.0,North,11.5,20.7,N/A,,Mostly Cloudy,360,2012-10-07 21:35:00
5:55 PM,60.8,57.2,88,30.03,10.0,North,23.0,27.6,N/A,,Mostly Cloudy,350,2012-10-07 21:55:00
6:15 PM,60.8,55.4,82,30.05,10.0,North,17.3,29.9,N/A,,Mostly Cloudy,10,2012-10-07 22:15:00
6:35 PM,59.0,55.4,88,30.06,10.0,North,17.3,28.8,N/A,,Mostly Cloudy,350,2012-10-07 22:35:00
6:55 PM,57.2,55.4,94,30.07,10.0,North,25.3,36.8,N/A,,Overcast,360,2012-10-07 22:55:00
7:15 PM,57.2,53.6,88,30.07,10.0,North,29.9,40.3,N/A,,Overcast,10,2012-10-07 23:15:00
7:35 PM,55.4,53.6,94,30.08,10.0,North,20.7,39.1,N/A,,Overcast,360,2012-10-07 23:35:00
7:55 PM,55.4,53.6,94,30.09,10.0,North,18.4,25.3,N/A,,Overcast,10,2012-10-07 23:55:00
8:15 PM,55.4,53.6,94,30.08,10.0,North,20.7,35.7,N/A,,Overcast,10,2012-10-08 00:15:00
8:35 PM,55.4,53.6,94,30.09,10.0,NNE,24.2,32.2,N/A,,Unknown,20,2012-10-08 00:35:00
8:55 PM,55.4,51.8,88,30.10,10.0,NNE,25.3,35.7,N/A,,Unknown,20,2012-10-08 00:55:00
9:15 PM,55.4,51.8,88,30.11,10.0,NNE,16.1,29.9,N/A,,Mostly Cloudy,20,2012-10-08 01:15:00
9:35 PM,55.4,51.8,88,30.11,10.0,NE,11.5,21.9,N/A,,Unknown,50,2012-10-08 01:35:00
9:55 PM,53.6,51.8,94,30.12,10.0,NNE,17.3,26.5,N/A,,Unknown,30,2012-10-08 01:55:00
10:15 PM,53.6,51.8,94,30.12,10.0,NNE,15.0,20.7,N/A,,Partly Cloudy,30,2012-10-08 02:15:00
10:35 PM,53.6,51.8,94,30.12,10.0,NNE,15.0,21.9,N/A,,Scattered Clouds,20,2012-10-08 02:35:00
10:55 PM,53.6,51.8,94,30.12,10.0,NNE,15.0,23.0,N/A,,Mostly Cloudy,20,2012-10-08 02:55:00
11:15 PM,53.6,51.8,94,30.12,10.0,NNE,12.7,-,N/A,,Mostly Cloudy,20,2012-10-08 03:15:00
11:35 PM,53.6,51.8,94,30.12,10.0,NE,15.0,-,N/A,,Mostly Cloudy,50,2012-10-08 03:35:00
11:55 PM,53.6,51.8,94,30.13,10.0,NNE,12.7,18.4,N/A,,Mostly Cloudy,30,2012-10-08 03:55:00